owner,sensor,date,latitude,longitude,vertical_datum,sea_water_practical_salinity,qcFlag 
DISL,ioos:station:DISL:BSCA:1,2017-02-01T00:00:00Z,30.3288,-87.8293,1.889,11.24,1111122 
DISL,ioos:station:DISL:BSCA:1,2017-02-01T00:30:00Z,30.3288,-87.8293,1.894,11.17,1111122 
DISL,ioos:station:DISL:BSCA:1,2017-02-01T01:00:00Z,30.3288,-87.8293,1.906,11.09,1111122 
DISL,ioos:station:DISL:BSCA:1,2017-02-01T01:30:00Z,30.3288,-87.8293,1.911,11.0,1111122 
DISL,ioos:station:DISL:BSCA:1,2017-02-01T02:00:00Z,30.3288,-87.8293,1.913,10.95,1111122 
DISL,ioos:station:DISL:BSCA:1,2017-02-01T02:30:00Z,30.3288,-87.8293,1.913,10.9,1111122 
DISL,ioos:station:DISL:BSCA:1,2017-02-01T03:00:00Z,30.3288,-87.8293,1.927,10.77,1111122 
DISL,ioos:station:DISL:BSCA:1,2017-02-01T03:30:00Z,30.3288,-87.8293,1.932,10.85,1111122 
DISL,ioos:station:DISL:BSCA:1,2017-02-01T04:00:00Z,30.3288,-87.8293,1.961,10.93,1111122 
DISL,ioos:station:DISL:BSCA:1,2017-02-01T04:30:00Z,30.3288,-87.8293,1.967,10.87,1111122 
DISL,ioos:station:DISL:BSCA:1,2017-02-01T05:00:00Z,30.3288,-87.8293,1.97,10.92,1111122 
DISL,ioos:station:DISL:BSCA:1,2017-02-01T05:30:00Z,30.3288,-87.8293,1.978,10.9,1111122 
DISL,ioos:station:DISL:BSCA:1,2017-02-01T06:00:00Z,30.3288,-87.8293,1.984,10.93,1111122 
DISL,ioos:station:DISL:BSCA:1,2017-02-01T06:30:00Z,30.3288,-87.8293,1.985,10.61,1111122 
DISL,ioos:station:DISL:BSCA:1,2017-02-01T07:00:00Z,30.3288,-87.8293,1.984,10.71,1111122 
DISL,ioos:station:DISL:BSCA:1,2017-02-01T07:30:00Z,30.3288,-87.8293,1.982,10.74,1111122 
DISL,ioos:station:DISL:BSCA:1,2017-02-01T08:00:00Z,30.3288,-87.8293,1.979,10.75,1111122 
DISL,ioos:station:DISL:BSCA:1,2017-02-01T08:30:00Z,30.3288,-87.8293,1.967,10.77,1111122 
DISL,ioos:station:DISL:BSCA:1,2017-02-01T09:00:00Z,30.3288,-87.8293,1.952,10.61,1111122 
DISL,ioos:station:DISL:BSCA:1,2017-02-01T09:30:00Z,30.3288,-87.8293,1.933,10.64,1111122 
DISL,ioos:station:DISL:BSCA:1,2017-02-01T10:00:00Z,30.3288,-87.8293,1.917,10.6,1111122 
DISL,ioos:station:DISL:BSCA:1,2017-02-01T10:30:00Z,30.3288,-87.8293,1.909,10.65,1111122 
DISL,ioos:station:DISL:BSCA:1,2017-02-01T11:00:00Z,30.3288,-87.8293,1.886,10.69,1111122 
DISL,ioos:station:DISL:BSCA:1,2017-02-01T11:30:00Z,30.3288,-87.8293,1.862,10.37,1111122 
DISL,ioos:station:DISL:BSCA:1,2017-02-01T12:00:00Z,30.3288,-87.8293,1.845,10.38,1111122 
DISL,ioos:station:DISL:BSCA:1,2017-02-01T12:30:00Z,30.3288,-87.8293,1.811,10.39,1111122 
DISL,ioos:station:DISL:BSCA:1,2017-02-01T13:00:00Z,30.3288,-87.8293,1.801,10.19,1111122 
DISL,ioos:station:DISL:BSCA:1,2017-02-01T13:30:00Z,30.3288,-87.8293,1.78,9.99,1111122 
DISL,ioos:station:DISL:BSCA:1,2017-02-01T14:00:00Z,30.3288,-87.8293,1.779,10.09,1111122 
DISL,ioos:station:DISL:BSCA:1,2017-02-01T14:30:00Z,30.3288,-87.8293,1.766,10.0,1111122 
DISL,ioos:station:DISL:BSCA:1,2017-02-01T15:00:00Z,30.3288,-87.8293,1.76,10.07,1111122 
DISL,ioos:station:DISL:BSCA:1,2017-02-01T15:30:00Z,30.3288,-87.8293,1.767,10.09,1111122 
DISL,ioos:station:DISL:BSCA:1,2017-02-01T16:00:00Z,30.3288,-87.8293,1.767,10.09,1111122 
DISL,ioos:station:DISL:BSCA:1,2017-02-01T16:30:00Z,30.3288,-87.8293,1.776,10.06,1111122 
DISL,ioos:station:DISL:BSCA:1,2017-02-01T17:00:00Z,30.3288,-87.8293,1.783,10.09,1111122 
DISL,ioos:station:DISL:BSCA:1,2017-02-01T17:30:00Z,30.3288,-87.8293,1.801,10.5,1111122 
DISL,ioos:station:DISL:BSCA:1,2017-02-01T18:00:00Z,30.3288,-87.8293,1.81,10.72,1111122 
DISL,ioos:station:DISL:BSCA:1,2017-02-01T18:30:00Z,30.3288,-87.8293,1.836,10.76,1111122 
DISL,ioos:station:DISL:BSCA:1,2017-02-01T19:00:00Z,30.3288,-87.8293,1.846,10.85,1111122 
DISL,ioos:station:DISL:BSCA:1,2017-02-01T19:30:00Z,30.3288,-87.8293,1.871,10.87,1111122 
DISL,ioos:station:DISL:BSCA:1,2017-02-01T20:00:00Z,30.3288,-87.8293,1.887,10.89,1111122 
DISL,ioos:station:DISL:BSCA:1,2017-02-01T20:30:00Z,30.3288,-87.8293,1.905,10.89,1111122 
DISL,ioos:station:DISL:BSCA:1,2017-02-01T21:00:00Z,30.3288,-87.8293,1.918,10.86,1111122 
DISL,ioos:station:DISL:BSCA:1,2017-02-01T21:30:00Z,30.3288,-87.8293,1.926,10.85,1111122 
DISL,ioos:station:DISL:BSCA:1,2017-02-01T22:00:00Z,30.3288,-87.8293,1.942,10.82,1111122 
DISL,ioos:station:DISL:BSCA:1,2017-02-01T22:30:00Z,30.3288,-87.8293,1.95,10.79,1111122 
DISL,ioos:station:DISL:BSCA:1,2017-02-01T23:00:00Z,30.3288,-87.8293,1.964,10.64,1111122 
DISL,ioos:station:DISL:BSCA:1,2017-02-01T23:30:00Z,30.3288,-87.8293,1.958,10.54,1111122 
DISL,ioos:station:DISL:BSCA:1,2017-02-02T00:00:00Z,30.3288,-87.8293,1.954,10.73,1111122 
DISL,ioos:station:DISL:BSCA:1,2017-02-02T00:30:00Z,30.3288,-87.8293,1.938,10.46,1111122 
DISL,ioos:station:DISL:BSCA:1,2017-02-02T01:00:00Z,30.3288,-87.8293,1.928,10.69,1111122 
DISL,ioos:station:DISL:BSCA:1,2017-02-02T01:30:00Z,30.3288,-87.8293,1.914,10.2,1111122 
DISL,ioos:station:DISL:BSCA:1,2017-02-02T02:00:00Z,30.3288,-87.8293,1.911,10.35,1111122 
DISL,ioos:station:DISL:BSCA:1,2017-02-02T02:30:00Z,30.3288,-87.8293,1.908,9.84,1111122 
DISL,ioos:station:DISL:BSCA:1,2017-02-02T03:00:00Z,30.3288,-87.8293,1.907,9.68,1111122 
DISL,ioos:station:DISL:BSCA:1,2017-02-02T03:30:00Z,30.3288,-87.8293,1.906,9.66,1111122 
DISL,ioos:station:DISL:BSCA:1,2017-02-02T04:00:00Z,30.3288,-87.8293,1.896,9.72,1111122 
DISL,ioos:station:DISL:BSCA:1,2017-02-02T04:30:00Z,30.3288,-87.8293,1.897,9.77,1111122 
DISL,ioos:station:DISL:BSCA:1,2017-02-02T05:00:00Z,30.3288,-87.8293,1.896,9.82,1111122 
DISL,ioos:station:DISL:BSCA:1,2017-02-02T05:30:00Z,30.3288,-87.8293,1.903,9.82,1111122 
DISL,ioos:station:DISL:BSCA:1,2017-02-02T06:00:00Z,30.3288,-87.8293,1.902,9.8,1111122 
DISL,ioos:station:DISL:BSCA:1,2017-02-02T06:30:00Z,30.3288,-87.8293,1.912,9.72,1111122 
DISL,ioos:station:DISL:BSCA:1,2017-02-02T07:00:00Z,30.3288,-87.8293,1.901,9.72,1111122 
DISL,ioos:station:DISL:BSCA:1,2017-02-02T07:30:00Z,30.3288,-87.8293,1.899,9.67,1111122 
DISL,ioos:station:DISL:BSCA:1,2017-02-02T08:00:00Z,30.3288,-87.8293,1.887,9.9,1111122 
DISL,ioos:station:DISL:BSCA:1,2017-02-02T08:30:00Z,30.3288,-87.8293,1.908,9.77,1111122 
DISL,ioos:station:DISL:BSCA:1,2017-02-02T09:00:00Z,30.3288,-87.8293,1.917,9.71,1111122 
DISL,ioos:station:DISL:BSCA:1,2017-02-02T09:30:00Z,30.3288,-87.8293,1.905,9.67,1111122 
DISL,ioos:station:DISL:BSCA:1,2017-02-02T10:00:00Z,30.3288,-87.8293,1.899,9.61,1111122 
DISL,ioos:station:DISL:BSCA:1,2017-02-02T10:30:00Z,30.3288,-87.8293,1.898,9.59,1111122 
DISL,ioos:station:DISL:BSCA:1,2017-02-02T11:00:00Z,30.3288,-87.8293,1.89,9.54,1111122 
DISL,ioos:station:DISL:BSCA:1,2017-02-02T11:30:00Z,30.3288,-87.8293,1.871,10.06,1111122 
DISL,ioos:station:DISL:BSCA:1,2017-02-02T12:00:00Z,30.3288,-87.8293,1.861,10.5,1111122 
DISL,ioos:station:DISL:BSCA:1,2017-02-02T12:30:00Z,30.3288,-87.8293,1.847,10.59,1111122 
DISL,ioos:station:DISL:BSCA:1,2017-02-02T13:00:00Z,30.3288,-87.8293,1.83,10.67,1111122 
DISL,ioos:station:DISL:BSCA:1,2017-02-02T13:30:00Z,30.3288,-87.8293,1.829,10.8,1111122 
DISL,ioos:station:DISL:BSCA:1,2017-02-02T14:00:00Z,30.3288,-87.8293,1.811,10.67,1111122 
DISL,ioos:station:DISL:BSCA:1,2017-02-02T14:30:00Z,30.3288,-87.8293,1.806,10.72,1111122 
DISL,ioos:station:DISL:BSCA:1,2017-02-02T15:00:00Z,30.3288,-87.8293,1.813,10.69,1111122 
DISL,ioos:station:DISL:BSCA:1,2017-02-02T15:30:00Z,30.3288,-87.8293,1.829,10.64,1111122 
DISL,ioos:station:DISL:BSCA:1,2017-02-02T16:00:00Z,30.3288,-87.8293,1.837,10.68,1111122 
DISL,ioos:station:DISL:BSCA:1,2017-02-02T16:30:00Z,30.3288,-87.8293,1.848,10.59,1111122 
DISL,ioos:station:DISL:BSCA:1,2017-02-02T17:00:00Z,30.3288,-87.8293,1.857,10.51,1111122 
DISL,ioos:station:DISL:BSCA:1,2017-02-02T17:30:00Z,30.3288,-87.8293,1.867,10.44,1111122 
DISL,ioos:station:DISL:BSCA:1,2017-02-02T18:00:00Z,30.3288,-87.8293,1.883,10.59,1111122 
DISL,ioos:station:DISL:BSCA:1,2017-02-02T18:30:00Z,30.3288,-87.8293,1.893,10.56,1111122 
DISL,ioos:station:DISL:BSCA:1,2017-02-02T19:00:00Z,30.3288,-87.8293,1.905,10.4,1111122 
DISL,ioos:station:DISL:BSCA:1,2017-02-02T19:30:00Z,30.3288,-87.8293,1.924,10.29,1111122 
DISL,ioos:station:DISL:BSCA:1,2017-02-02T20:00:00Z,30.3288,-87.8293,1.928,10.25,1111122 
DISL,ioos:station:DISL:BSCA:1,2017-02-02T20:30:00Z,30.3288,-87.8293,1.951,10.13,1111122 
DISL,ioos:station:DISL:BSCA:1,2017-02-02T21:00:00Z,30.3288,-87.8293,1.965,10.28,1111122 
DISL,ioos:station:DISL:BSCA:1,2017-02-02T21:30:00Z,30.3288,-87.8293,1.966,10.28,1111122 
DISL,ioos:station:DISL:BSCA:1,2017-02-02T22:00:00Z,30.3288,-87.8293,1.977,10.26,1111122 
DISL,ioos:station:DISL:BSCA:1,2017-02-02T22:30:00Z,30.3288,-87.8293,1.984,10.13,1111122 
DISL,ioos:station:DISL:BSCA:1,2017-02-02T23:00:00Z,30.3288,-87.8293,1.991,9.63,1111122 
DISL,ioos:station:DISL:BSCA:1,2017-02-02T23:30:00Z,30.3288,-87.8293,1.988,9.17,1111122 
DISL,ioos:station:DISL:BSCA:1,2017-02-03T00:00:00Z,30.3288,-87.8293,1.978,8.81,1111122 
DISL,ioos:station:DISL:BSCA:1,2017-02-03T00:30:00Z,30.3288,-87.8293,1.969,9.19,1111122 
DISL,ioos:station:DISL:BSCA:1,2017-02-03T01:00:00Z,30.3288,-87.8293,1.959,9.05,1111122 
DISL,ioos:station:DISL:BSCA:1,2017-02-03T01:30:00Z,30.3288,-87.8293,1.92,9.0,1111122 
DISL,ioos:station:DISL:BSCA:1,2017-02-03T02:00:00Z,30.3288,-87.8293,1.917,9.01,1111122 
DISL,ioos:station:DISL:BSCA:1,2017-02-03T02:30:00Z,30.3288,-87.8293,1.903,8.97,1111122 
DISL,ioos:station:DISL:BSCA:1,2017-02-03T03:00:00Z,30.3288,-87.8293,1.875,9.01,1111122 
DISL,ioos:station:DISL:BSCA:1,2017-02-03T03:30:00Z,30.3288,-87.8293,1.863,9.1,1111122 
DISL,ioos:station:DISL:BSCA:1,2017-02-03T04:00:00Z,30.3288,-87.8293,1.856,9.17,1111122 
DISL,ioos:station:DISL:BSCA:1,2017-02-03T04:30:00Z,30.3288,-87.8293,1.863,9.25,1111122 
DISL,ioos:station:DISL:BSCA:1,2017-02-03T05:00:00Z,30.3288,-87.8293,1.858,9.35,1111122 
DISL,ioos:station:DISL:BSCA:1,2017-02-03T05:30:00Z,30.3288,-87.8293,1.854,9.51,1111122 
DISL,ioos:station:DISL:BSCA:1,2017-02-03T06:00:00Z,30.3288,-87.8293,1.842,9.54,1111122 
DISL,ioos:station:DISL:BSCA:1,2017-02-03T06:30:00Z,30.3288,-87.8293,1.833,9.55,1111122 
DISL,ioos:station:DISL:BSCA:1,2017-02-03T07:00:00Z,30.3288,-87.8293,1.815,9.46,1111122 
DISL,ioos:station:DISL:BSCA:1,2017-02-03T07:30:00Z,30.3288,-87.8293,1.815,9.47,1111122 
DISL,ioos:station:DISL:BSCA:1,2017-02-03T08:00:00Z,30.3288,-87.8293,1.803,9.37,1111122 
DISL,ioos:station:DISL:BSCA:1,2017-02-03T08:30:00Z,30.3288,-87.8293,1.808,9.27,1111122 
DISL,ioos:station:DISL:BSCA:1,2017-02-03T09:00:00Z,30.3288,-87.8293,1.824,9.14,1111122 
DISL,ioos:station:DISL:BSCA:1,2017-02-03T09:30:00Z,30.3288,-87.8293,1.836,9.06,1111122 
DISL,ioos:station:DISL:BSCA:1,2017-02-03T10:00:00Z,30.3288,-87.8293,1.845,9.07,1111122 
DISL,ioos:station:DISL:BSCA:1,2017-02-03T10:30:00Z,30.3288,-87.8293,1.848,9.93,1111122 
DISL,ioos:station:DISL:BSCA:1,2017-02-03T11:00:00Z,30.3288,-87.8293,1.844,10.08,1111122 
DISL,ioos:station:DISL:BSCA:1,2017-02-03T11:30:00Z,30.3288,-87.8293,1.832,10.17,1111122 
DISL,ioos:station:DISL:BSCA:1,2017-02-03T12:00:00Z,30.3288,-87.8293,1.836,10.14,1111122 
DISL,ioos:station:DISL:BSCA:1,2017-02-03T12:30:00Z,30.3288,-87.8293,1.838,10.12,1111122 
DISL,ioos:station:DISL:BSCA:1,2017-02-03T13:00:00Z,30.3288,-87.8293,1.836,10.09,1111122 
DISL,ioos:station:DISL:BSCA:1,2017-02-03T13:30:00Z,30.3288,-87.8293,1.841,10.09,1111122 
DISL,ioos:station:DISL:BSCA:1,2017-02-03T14:00:00Z,30.3288,-87.8293,1.851,10.07,1111122 
DISL,ioos:station:DISL:BSCA:1,2017-02-03T14:30:00Z,30.3288,-87.8293,1.87,10.09,1111122 
DISL,ioos:station:DISL:BSCA:1,2017-02-03T15:00:00Z,30.3288,-87.8293,1.869,10.13,1111122 
DISL,ioos:station:DISL:BSCA:1,2017-02-03T15:30:00Z,30.3288,-87.8293,1.872,10.16,1111122 
DISL,ioos:station:DISL:BSCA:1,2017-02-03T16:00:00Z,30.3288,-87.8293,1.879,10.01,1111122 
DISL,ioos:station:DISL:BSCA:1,2017-02-03T16:30:00Z,30.3288,-87.8293,1.905,9.97,1111122 
DISL,ioos:station:DISL:BSCA:1,2017-02-03T17:00:00Z,30.3288,-87.8293,1.908,10.0,1111122 
DISL,ioos:station:DISL:BSCA:1,2017-02-03T17:30:00Z,30.3288,-87.8293,1.975,10.12,1111122 
DISL,ioos:station:DISL:BSCA:1,2017-02-03T18:00:00Z,30.3288,-87.8293,1.958,9.89,1111122 
DISL,ioos:station:DISL:BSCA:1,2017-02-03T18:30:00Z,30.3288,-87.8293,1.978,10.3,1111122 
DISL,ioos:station:DISL:BSCA:1,2017-02-03T19:00:00Z,30.3288,-87.8293,1.944,10.23,1111122 
DISL,ioos:station:DISL:BSCA:1,2017-02-03T19:30:00Z,30.3288,-87.8293,1.908,9.25,1111122 
DISL,ioos:station:DISL:BSCA:1,2017-02-03T20:00:00Z,30.3288,-87.8293,1.892,9.15,1111122 
DISL,ioos:station:DISL:BSCA:1,2017-02-03T20:30:00Z,30.3288,-87.8293,1.886,9.63,1111122 
DISL,ioos:station:DISL:BSCA:1,2017-02-03T21:00:00Z,30.3288,-87.8293,1.986,10.09,1111122 
DISL,ioos:station:DISL:BSCA:1,2017-02-03T21:30:00Z,30.3288,-87.8293,1.924,10.12,1111122 
DISL,ioos:station:DISL:BSCA:1,2017-02-03T22:00:00Z,30.3288,-87.8293,1.914,9.86,1111122 
DISL,ioos:station:DISL:BSCA:1,2017-02-03T22:30:00Z,30.3288,-87.8293,1.897,9.15,1111122 
DISL,ioos:station:DISL:BSCA:1,2017-02-03T23:00:00Z,30.3288,-87.8293,1.878,8.97,1111122 
DISL,ioos:station:DISL:BSCA:1,2017-02-03T23:30:00Z,30.3288,-87.8293,1.861,8.7,1111122 
DISL,ioos:station:DISL:BSCA:1,2017-02-04T00:00:00Z,30.3288,-87.8293,1.856,9.02,1111122 
DISL,ioos:station:DISL:BSCA:1,2017-02-04T00:30:00Z,30.3288,-87.8293,1.838,8.29,1111122 
DISL,ioos:station:DISL:BSCA:1,2017-02-04T01:00:00Z,30.3288,-87.8293,1.837,8.79,1111122 
DISL,ioos:station:DISL:BSCA:1,2017-02-04T01:30:00Z,30.3288,-87.8293,1.792,8.02,1111122 
DISL,ioos:station:DISL:BSCA:1,2017-02-04T02:00:00Z,30.3288,-87.8293,1.77,7.42,1111122 
DISL,ioos:station:DISL:BSCA:1,2017-02-04T02:30:00Z,30.3288,-87.8293,1.744,7.19,1111122 
DISL,ioos:station:DISL:BSCA:1,2017-02-04T03:00:00Z,30.3288,-87.8293,1.722,7.37,1111122 
DISL,ioos:station:DISL:BSCA:1,2017-02-04T03:30:00Z,30.3288,-87.8293,1.722,6.85,1111122 
DISL,ioos:station:DISL:BSCA:1,2017-02-04T04:00:00Z,30.3288,-87.8293,1.735,7.48,1111122 
DISL,ioos:station:DISL:BSCA:1,2017-02-04T04:30:00Z,30.3288,-87.8293,1.72,7.13,1111122 
DISL,ioos:station:DISL:BSCA:1,2017-02-04T05:00:00Z,30.3288,-87.8293,1.709,7.02,1111122 
DISL,ioos:station:DISL:BSCA:1,2017-02-04T05:30:00Z,30.3288,-87.8293,1.678,7.03,1111122 
DISL,ioos:station:DISL:BSCA:1,2017-02-04T06:00:00Z,30.3288,-87.8293,1.671,6.86,1111122 
DISL,ioos:station:DISL:BSCA:1,2017-02-04T06:30:00Z,30.3288,-87.8293,1.629,6.86,1111122 
DISL,ioos:station:DISL:BSCA:1,2017-02-04T07:00:00Z,30.3288,-87.8293,1.605,6.56,1111122 
DISL,ioos:station:DISL:BSCA:1,2017-02-04T07:30:00Z,30.3288,-87.8293,1.572,6.42,1111122 
DISL,ioos:station:DISL:BSCA:1,2017-02-04T08:00:00Z,30.3288,-87.8293,1.546,6.2,1111122 
DISL,ioos:station:DISL:BSCA:1,2017-02-04T08:30:00Z,30.3288,-87.8293,1.531,6.25,1111122 
DISL,ioos:station:DISL:BSCA:1,2017-02-04T09:00:00Z,30.3288,-87.8293,1.521,6.43,1111122 
DISL,ioos:station:DISL:BSCA:1,2017-02-04T09:30:00Z,30.3288,-87.8293,1.518,6.84,1111122 
DISL,ioos:station:DISL:BSCA:1,2017-02-04T10:00:00Z,30.3288,-87.8293,1.528,6.44,1111122 
DISL,ioos:station:DISL:BSCA:1,2017-02-04T10:30:00Z,30.3288,-87.8293,1.544,6.45,1111122 
DISL,ioos:station:DISL:BSCA:1,2017-02-04T11:00:00Z,30.3288,-87.8293,1.555,6.36,1111122 
DISL,ioos:station:DISL:BSCA:1,2017-02-04T11:30:00Z,30.3288,-87.8293,1.548,6.58,1111122 
DISL,ioos:station:DISL:BSCA:1,2017-02-04T12:00:00Z,30.3288,-87.8293,1.551,6.06,1111122 
DISL,ioos:station:DISL:BSCA:1,2017-02-04T12:30:00Z,30.3288,-87.8293,1.551,6.18,1111122 
DISL,ioos:station:DISL:BSCA:1,2017-02-04T13:00:00Z,30.3288,-87.8293,1.557,5.8,1111122 
DISL,ioos:station:DISL:BSCA:1,2017-02-04T13:30:00Z,30.3288,-87.8293,1.568,6.34,1111122 
DISL,ioos:station:DISL:BSCA:1,2017-02-04T14:00:00Z,30.3288,-87.8293,1.579,6.32,1111122 
DISL,ioos:station:DISL:BSCA:1,2017-02-04T14:30:00Z,30.3288,-87.8293,1.592,6.25,1111122 
DISL,ioos:station:DISL:BSCA:1,2017-02-04T15:00:00Z,30.3288,-87.8293,1.634,5.99,1111122 
DISL,ioos:station:DISL:BSCA:1,2017-02-04T15:30:00Z,30.3288,-87.8293,1.661,5.72,1111122 
DISL,ioos:station:DISL:BSCA:1,2017-02-04T16:00:00Z,30.3288,-87.8293,1.713,6.32,1111122 
DISL,ioos:station:DISL:BSCA:1,2017-02-04T16:30:00Z,30.3288,-87.8293,1.744,6.55,1111122 
DISL,ioos:station:DISL:BSCA:1,2017-02-04T17:00:00Z,30.3288,-87.8293,1.78,6.87,1111122 
DISL,ioos:station:DISL:BSCA:1,2017-02-04T17:30:00Z,30.3288,-87.8293,1.81,7.25,1111122 
DISL,ioos:station:DISL:BSCA:1,2017-02-04T18:00:00Z,30.3288,-87.8293,1.84,7.71,1111122 
DISL,ioos:station:DISL:BSCA:1,2017-02-04T18:30:00Z,30.3288,-87.8293,1.874,7.66,1111122 
DISL,ioos:station:DISL:BSCA:1,2017-02-04T19:00:00Z,30.3288,-87.8293,1.895,7.75,1111122 
DISL,ioos:station:DISL:BSCA:1,2017-02-04T19:30:00Z,30.3288,-87.8293,1.932,7.79,1111122 
DISL,ioos:station:DISL:BSCA:1,2017-02-04T20:00:00Z,30.3288,-87.8293,1.952,7.83,1111122 
DISL,ioos:station:DISL:BSCA:1,2017-02-04T20:30:00Z,30.3288,-87.8293,1.985,8.03,1111122 
DISL,ioos:station:DISL:BSCA:1,2017-02-04T21:00:00Z,30.3288,-87.8293,2.005,8.2,1111122 
DISL,ioos:station:DISL:BSCA:1,2017-02-04T21:30:00Z,30.3288,-87.8293,2.025,8.35,1111122 
DISL,ioos:station:DISL:BSCA:1,2017-02-04T22:00:00Z,30.3288,-87.8293,2.036,8.16,1111122 
DISL,ioos:station:DISL:BSCA:1,2017-02-04T22:30:00Z,30.3288,-87.8293,2.038,8.13,1111122 
DISL,ioos:station:DISL:BSCA:1,2017-02-04T23:00:00Z,30.3288,-87.8293,2.044,8.08,1111122 
DISL,ioos:station:DISL:BSCA:1,2017-02-04T23:30:00Z,30.3288,-87.8293,2.035,7.97,1111122 
DISL,ioos:station:DISL:BSCA:1,2017-02-05T00:00:00Z,30.3288,-87.8293,2.028,8.07,1111122 
DISL,ioos:station:DISL:BSCA:1,2017-02-05T00:30:00Z,30.3288,-87.8293,2.017,7.96,1111122 
DISL,ioos:station:DISL:BSCA:1,2017-02-05T01:00:00Z,30.3288,-87.8293,2.004,8.17,1111122 
DISL,ioos:station:DISL:BSCA:1,2017-02-05T01:30:00Z,30.3288,-87.8293,1.981,8.08,1111122 
DISL,ioos:station:DISL:BSCA:1,2017-02-05T02:00:00Z,30.3288,-87.8293,1.955,8.07,1111122 
DISL,ioos:station:DISL:BSCA:1,2017-02-05T02:30:00Z,30.3288,-87.8293,1.928,7.95,1111122 
DISL,ioos:station:DISL:BSCA:1,2017-02-05T03:00:00Z,30.3288,-87.8293,1.893,8.05,1111122 
DISL,ioos:station:DISL:BSCA:1,2017-02-05T03:30:00Z,30.3288,-87.8293,1.873,8.28,1111122 
DISL,ioos:station:DISL:BSCA:1,2017-02-05T04:00:00Z,30.3288,-87.8293,1.845,8.17,1111122 
DISL,ioos:station:DISL:BSCA:1,2017-02-05T04:30:00Z,30.3288,-87.8293,1.826,8.19,1111122 
DISL,ioos:station:DISL:BSCA:1,2017-02-05T05:00:00Z,30.3288,-87.8293,1.8,8.41,1111122 
DISL,ioos:station:DISL:BSCA:1,2017-02-05T05:30:00Z,30.3288,-87.8293,1.778,8.4,1111122 
DISL,ioos:station:DISL:BSCA:1,2017-02-05T06:00:00Z,30.3288,-87.8293,1.741,8.37,1111122 
DISL,ioos:station:DISL:BSCA:1,2017-02-05T06:30:00Z,30.3288,-87.8293,1.712,8.42,1111122 
DISL,ioos:station:DISL:BSCA:1,2017-02-05T07:00:00Z,30.3288,-87.8293,1.686,8.5,1111122 
DISL,ioos:station:DISL:BSCA:1,2017-02-05T07:30:00Z,30.3288,-87.8293,1.662,8.43,1111122 
DISL,ioos:station:DISL:BSCA:1,2017-02-05T08:00:00Z,30.3288,-87.8293,1.642,8.34,1111122 
DISL,ioos:station:DISL:BSCA:1,2017-02-05T08:30:00Z,30.3288,-87.8293,1.626,8.29,1111122 
DISL,ioos:station:DISL:BSCA:1,2017-02-05T09:00:00Z,30.3288,-87.8293,1.614,8.17,1111122 
DISL,ioos:station:DISL:BSCA:1,2017-02-05T09:30:00Z,30.3288,-87.8293,1.614,8.18,1111122 
DISL,ioos:station:DISL:BSCA:1,2017-02-05T10:00:00Z,30.3288,-87.8293,1.621,8.37,1111122 
DISL,ioos:station:DISL:BSCA:1,2017-02-05T10:30:00Z,30.3288,-87.8293,1.614,8.2,1111122 
DISL,ioos:station:DISL:BSCA:1,2017-02-05T11:00:00Z,30.3288,-87.8293,1.622,8.23,1111122 
DISL,ioos:station:DISL:BSCA:1,2017-02-05T11:30:00Z,30.3288,-87.8293,1.632,8.0,1111122 
DISL,ioos:station:DISL:BSCA:1,2017-02-05T12:00:00Z,30.3288,-87.8293,1.644,8.17,1111122 
DISL,ioos:station:DISL:BSCA:1,2017-02-05T12:30:00Z,30.3288,-87.8293,1.685,8.15,1111122 
DISL,ioos:station:DISL:BSCA:1,2017-02-05T13:00:00Z,30.3288,-87.8293,1.685,8.66,1111122 
DISL,ioos:station:DISL:BSCA:1,2017-02-05T13:30:00Z,30.3288,-87.8293,1.715,8.18,1111122 
DISL,ioos:station:DISL:BSCA:1,2017-02-05T14:00:00Z,30.3288,-87.8293,1.745,8.57,1111122 
DISL,ioos:station:DISL:BSCA:1,2017-02-05T14:30:00Z,30.3288,-87.8293,1.783,8.44,1111122 
DISL,ioos:station:DISL:BSCA:1,2017-02-05T15:00:00Z,30.3288,-87.8293,1.817,8.81,1111122 
DISL,ioos:station:DISL:BSCA:1,2017-02-05T15:30:00Z,30.3288,-87.8293,1.823,9.17,1111122 
DISL,ioos:station:DISL:BSCA:1,2017-02-05T16:00:00Z,30.3288,-87.8293,1.847,9.45,1111122 
DISL,ioos:station:DISL:BSCA:1,2017-02-05T16:30:00Z,30.3288,-87.8293,1.868,9.43,1111122 
DISL,ioos:station:DISL:BSCA:1,2017-02-05T17:00:00Z,30.3288,-87.8293,1.88,9.38,1111122 
DISL,ioos:station:DISL:BSCA:1,2017-02-05T17:30:00Z,30.3288,-87.8293,1.895,9.57,1111122 
DISL,ioos:station:DISL:BSCA:1,2017-02-05T18:00:00Z,30.3288,-87.8293,1.907,9.48,1111122 
DISL,ioos:station:DISL:BSCA:1,2017-02-05T18:30:00Z,30.3288,-87.8293,1.925,8.7,1111122 
DISL,ioos:station:DISL:BSCA:1,2017-02-05T19:00:00Z,30.3288,-87.8293,1.959,8.62,1111122 
DISL,ioos:station:DISL:BSCA:1,2017-02-05T19:30:00Z,30.3288,-87.8293,1.983,8.97,1111122 
DISL,ioos:station:DISL:BSCA:1,2017-02-05T20:00:00Z,30.3288,-87.8293,2.008,9.01,1111122 
DISL,ioos:station:DISL:BSCA:1,2017-02-05T20:30:00Z,30.3288,-87.8293,2.025,8.74,1111122 
DISL,ioos:station:DISL:BSCA:1,2017-02-05T21:00:00Z,30.3288,-87.8293,2.032,8.54,1111122 
DISL,ioos:station:DISL:BSCA:1,2017-02-05T21:30:00Z,30.3288,-87.8293,2.043,8.48,1111122 
DISL,ioos:station:DISL:BSCA:1,2017-02-05T22:00:00Z,30.3288,-87.8293,2.043,8.41,1111122 
DISL,ioos:station:DISL:BSCA:1,2017-02-05T22:30:00Z,30.3288,-87.8293,2.056,8.69,1111122 
DISL,ioos:station:DISL:BSCA:1,2017-02-05T23:00:00Z,30.3288,-87.8293,2.067,8.49,1111122 
DISL,ioos:station:DISL:BSCA:1,2017-02-05T23:30:00Z,30.3288,-87.8293,2.052,8.6,1111122 
DISL,ioos:station:DISL:BSCA:1,2017-02-06T00:00:00Z,30.3288,-87.8293,2.047,8.14,1111122 
DISL,ioos:station:DISL:BSCA:1,2017-02-06T00:30:00Z,30.3288,-87.8293,2.037,8.31,1111122 
DISL,ioos:station:DISL:BSCA:1,2017-02-06T01:00:00Z,30.3288,-87.8293,2.026,8.38,1111122 
DISL,ioos:station:DISL:BSCA:1,2017-02-06T01:30:00Z,30.3288,-87.8293,2.007,8.26,1111122 
DISL,ioos:station:DISL:BSCA:1,2017-02-06T02:00:00Z,30.3288,-87.8293,1.986,8.24,1111122 
DISL,ioos:station:DISL:BSCA:1,2017-02-06T02:30:00Z,30.3288,-87.8293,1.963,8.28,1111122 
DISL,ioos:station:DISL:BSCA:1,2017-02-06T03:00:00Z,30.3288,-87.8293,1.941,8.24,1111122 
DISL,ioos:station:DISL:BSCA:1,2017-02-06T03:30:00Z,30.3288,-87.8293,1.901,8.35,1111122 
DISL,ioos:station:DISL:BSCA:1,2017-02-06T04:00:00Z,30.3288,-87.8293,1.865,8.53,1111122 
DISL,ioos:station:DISL:BSCA:1,2017-02-06T04:30:00Z,30.3288,-87.8293,1.859,8.67,1111122 
DISL,ioos:station:DISL:BSCA:1,2017-02-06T05:00:00Z,30.3288,-87.8293,1.821,9.2,1111122 
DISL,ioos:station:DISL:BSCA:1,2017-02-06T05:30:00Z,30.3288,-87.8293,1.79,9.09,1111122 
DISL,ioos:station:DISL:BSCA:1,2017-02-06T06:00:00Z,30.3288,-87.8293,1.756,8.9,1111122 
DISL,ioos:station:DISL:BSCA:1,2017-02-06T06:30:00Z,30.3288,-87.8293,1.726,9.09,1111122 
DISL,ioos:station:DISL:BSCA:1,2017-02-06T07:00:00Z,30.3288,-87.8293,1.689,9.0,1111122 
DISL,ioos:station:DISL:BSCA:1,2017-02-06T07:30:00Z,30.3288,-87.8293,1.655,9.01,1111122 
DISL,ioos:station:DISL:BSCA:1,2017-02-06T08:00:00Z,30.3288,-87.8293,1.629,9.22,1111122 
DISL,ioos:station:DISL:BSCA:1,2017-02-06T08:30:00Z,30.3288,-87.8293,1.607,9.43,1111122 
DISL,ioos:station:DISL:BSCA:1,2017-02-06T09:00:00Z,30.3288,-87.8293,1.589,9.41,1111122 
DISL,ioos:station:DISL:BSCA:1,2017-02-06T09:30:00Z,30.3288,-87.8293,1.578,9.31,1111122 
DISL,ioos:station:DISL:BSCA:1,2017-02-06T10:00:00Z,30.3288,-87.8293,1.567,9.33,1111122 
DISL,ioos:station:DISL:BSCA:1,2017-02-06T10:30:00Z,30.3288,-87.8293,1.558,8.56,1111122 
DISL,ioos:station:DISL:BSCA:1,2017-02-06T11:00:00Z,30.3288,-87.8293,1.547,8.41,1111122 
DISL,ioos:station:DISL:BSCA:1,2017-02-06T11:30:00Z,30.3288,-87.8293,1.542,9.22,1111122 
DISL,ioos:station:DISL:BSCA:1,2017-02-06T12:00:00Z,30.3288,-87.8293,1.542,9.18,1111122 
DISL,ioos:station:DISL:BSCA:1,2017-02-06T12:30:00Z,30.3288,-87.8293,1.559,8.94,1111122 
DISL,ioos:station:DISL:BSCA:1,2017-02-06T13:00:00Z,30.3288,-87.8293,1.578,9.39,1111122 
DISL,ioos:station:DISL:BSCA:1,2017-02-06T13:30:00Z,30.3288,-87.8293,1.603,9.51,1111122 
DISL,ioos:station:DISL:BSCA:1,2017-02-06T14:00:00Z,30.3288,-87.8293,1.644,9.71,1111122 
DISL,ioos:station:DISL:BSCA:1,2017-02-06T14:30:00Z,30.3288,-87.8293,1.68,9.61,1111122 
DISL,ioos:station:DISL:BSCA:1,2017-02-06T15:00:00Z,30.3288,-87.8293,1.715,9.26,1111122 